Theta_e
337 338 338 339 339 338 339 339 339 336 330 330 330 324 318 313 307 307 308 308 310 310 310 310 310 310 310 310 310 310 310 311 311 311 312 312 312 312 312 313 313 312
337 338 338 339 340 339 339 338 338 336 332 334 329 316 313 312 307 307 308 308 310 310 310 310 310 310 310 310 310 310 310 311 311 311 311 311 312 312 313 313 313 313
337 337 338 339 340 339 337 335 336 336 335 334 325 313 311 311 307 307 308 308 310 310 310 310 310 310 310 310 310 310 310 310 310 311 311 311 311 312 312 313 312 312
337 337 337 337 338 338 336 334 334 334 332 327 318 311 310 308 307 307 308 309 310 310 310 310 310 310 310 310 310 310 310 310 310 310 311 311 311 312 312 312 313 312
337 336 336 337 337 337 336 335 332 329 327 321 313 310 309 307 307 307 308 309 310 310 310 310 310 310 310 310 310 310 310 310 310 310 311 311 311 312 312 313 313 313
335 334 334 335 336 336 337 337 332 326 321 315 309 308 308 307 308 308 308 309 310 311 311 311 311 311 311 311 311 310 310 310 310 310 310 310 310 310 312 312 313 313
333 334 334 334 335 336 334 334 332 325 317 310 307 308 308 308 309 309 309 310 311 311 312 312 312 312 312 312 312 311 311 311 310 309 309 309 309 309 309 309 310 310
335 335 335 335 334 331 329 329 326 319 311 308 308 309 309 310 310 310 311 312 312 312 312 313 313 313 313 313 313 312 312 311 309 309 309 308 308 308 308 308 308 308
336 335 335 333 328 323 324 323 318 311 308 308 309 310 311 311 312 313 313 313 313 313 313 314 314 313 314 313 313 313 312 310 309 308 308 308 308 308 307 307 308 308
334 333 333 328 320 316 318 316 311 308 308 309 311 311 312 313 314 314 314 314 314 314 314 315 314 314 313 313 313 312 311 309 309 308 307 307 307 307 306 306 306 307
329 330 328 323 314 311 312 310 308 309 311 312 313 313 313 314 315 315 314 314 315 315 315 315 314 314 313 313 312 311 310 309 308 308 307 307 307 306 305 305 305 306
328 325 321 316 311 309 308 308 310 312 312 313 313 314 314 315 315 314 315 315 315 315 315 314 313 313 313 312 311 310 309 309 308 307 307 307 307 307 306 306 305 306
324 320 316 312 310 310 310 311 313 314 314 315 315 315 315 315 315 315 315 315 315 315 314 313 313 312 311 311 310 309 309 308 308 307 307 307 307 307 307 306 306 306
319 316 314 312 311 313 313 315 316 315 316 317 316 316 315 315 315 315 314 314 314 313 313 312 312 311 311 310 309 309 309 308 308 307 307 307 307 307 307 307 307 307
316 315 316 315 315 316 317 317 318 317 317 317 316 315 315 315 314 313 313 313 312 312 312 311 310 310 309 309 309 308 308 308 308 307 307 307 306 307 307 307 307 307
317 317 317 317 317 318 318 317 317 316 315 314 314 314 313 312 312 312 312 312 312 312 311 310 309 309 309 308 308 308 308 308 308 307 307 307 307 307 307 307 307 306
315 316 316 316 316 316 316 315 314 313 312 312 312 311 311 311 312 312 312 311 311 310 309 309 309 308 308 308 307 307 307 307 307 307 307 307 307 307 307 306 306 306
312 312 312 312 312 312 311 311 311 310 310 310 310 310 310 310 310 310 310 310 310 309 308 308 307 307 307 307 307 307 306 306 306 306 306 307 306 306 306 306 306 307
311 311 310 310 310 310 310 310 310 309 309 309 309 310 309 309 309 309 309 308 308 308 307 307 306 306 306 306 306 306 306 306 306 306 306 306 306 306 306 306 306 306
311 312 311 311 311 312 311 311 311 311 310 310 309 308 307 307 307 307 307 307 306 306 306 305 305 305 304 304 304 304 304 304 305 305 305 305 306 306 306 306 306 306
312 312 312 311 311 311 311 311 311 310 309 308 307 306 305 305 305 305 305 304 304 304 304 303 303 303 302 302 302 302 302 302 302 303 303 304 304 304 305 305 306 306
312 311 310 310 309 309 308 308 307 306 306 305 304 303 303 303 303 302 302 302 302 302 302 302 302 302 301 301 301 301 302 302 303 302 302 302 302 303 303 304 305 305
310 309 308 308 307 306 305 304 304 303 302 302 301 301 301 301 301 301 302 302 301 301 301 301 301 300 300 301 302 302 303 303 304 304 303 303 303 303 303 303 304 304
307 306 306 305 304 303 303 302 301 301 300 300 300 301 301 301 301 301 301 301 300 300 300 300 300 300 301 302 303 303 304 304 304 304 304 304 304 304 303 303 303 304
305 304 304 303 302 301 301 300 300 300 300 300 300 301 301 301 301 301 300 300 299 299 299 300 301 301 302 302 303 303 303 303 303 303 304 304 304 303 303 303 303 304
303 303 302 301 301 300 300 300 300 300 300 300 301 301 301 301 301 300 300 299 299 299 300 301 302 302 302 302 302 303 303 302 302 302 303 303 303 303 303 303 303 303
Wind_Speed
25 25 26 26 26 26 26 25 25 23 21 20 20 19 19 20 21 22 22 21 20 19 19 18 17 15 14 14 14 14 14 15 16 17 17 18 19 19 19 18 18 18
24 25 26 26 26 27 29 28 24 21 19 19 20 20 21 21 24 25 23 21 20 20 19 18 16 15 14 14 14 15 16 17 18 19 20 21 21 21 22 21 20 20
24 25 27 28 28 29 28 25 22 22 21 21 22 23 23 24 26 26 24 22 21 21 19 17 16 15 15 15 16 17 18 19 20 21 22 23 23 24 24 24 24 23
25 26 29 31 31 30 27 23 23 25 25 25 25 25 26 27 28 26 24 23 22 21 19 17 16 15 16 16 17 19 20 22 23 23 24 25 25 26 26 26 26 26
27 28 30 32 33 32 29 27 26 26 27 27 27 27 27 28 28 26 25 24 23 22 19 18 17 17 17 18 20 21 23 24 26 26 28 29 28 28 27 27 27 27
29 29 30 32 34 34 33 31 29 28 29 30 29 29 29 28 28 27 27 26 25 23 21 19 19 19 20 20 22 24 26 27 29 29 31 31 30 28 27 28 28 28
32 32 32 33 33 34 34 32 30 29 29 29 29 29 28 28 27 28 28 26 25 23 22 21 22 22 22 23 24 26 29 30 31 32 32 31 29 28 27 27 28 29
35 35 33 32 32 33 33 31 30 29 29 29 29 28 27 26 26 26 26 25 25 24 24 24 25 25 24 25 27 29 30 32 33 32 32 30 29 29 28 28 28 29
35 34 32 32 32 32 31 30 29 29 28 28 28 26 25 25 24 25 25 25 25 26 27 28 27 27 27 28 29 31 32 34 33 32 31 30 29 29 29 28 28 28
33 31 30 31 31 30 30 30 29 29 28 28 27 26 25 24 24 25 25 25 26 28 29 29 28 29 29 31 32 33 34 33 32 31 31 29 28 28 27 26 26 26
28 28 29 30 30 31 31 30 29 29 29 29 28 28 28 28 26 25 26 27 28 29 29 29 30 31 32 33 33 33 33 32 31 30 29 27 27 27 25 24 24 24
27 28 29 29 30 31 31 30 30 30 30 30 30 29 29 28 26 26 28 28 28 29 30 31 32 33 33 34 33 32 32 31 30 29 27 27 27 27 26 24 23 22
26 27 29 29 31 32 31 31 30 29 29 30 32 31 28 26 25 26 26 28 29 30 31 31 33 34 34 34 33 32 31 31 30 29 29 29 29 29 28 26 25 24
25 26 27 30 32 33 33 32 31 30 30 30 31 30 26 24 25 25 26 28 29 30 30 32 34 35 35 35 34 33 32 32 32 31 31 31 31 31 30 29 28 28
26 26 28 30 32 32 31 30 29 27 27 27 27 26 26 26 26 26 27 29 30 32 34 35 36 36 35 34 34 33 32 33 33 33 34 35 34 34 33 32 31 31
22 24 25 26 26 25 24 23 23 23 24 25 25 25 26 26 27 29 31 32 33 35 36 36 36 36 35 34 33 33 33 34 35 35 36 37 36 35 35 34 33 33
10 12 14 15 17 18 18 19 21 21 22 23 24 25 26 27 29 32 34 34 36 36 36 37 37 36 35 34 34 34 34 35 36 36 36 37 37 37 37 36 35 34
2 5 7 9 12 14 16 18 19 20 21 22 24 26 29 30 31 32 34 35 36 38 38 38 38 36 35 35 35 35 35 35 36 36 37 38 38 39 39 39 37 36
8 10 11 12 15 18 20 21 22 23 25 27 28 29 32 33 34 34 34 35 37 38 39 39 39 38 37 38 38 38 37 37 37 38 39 39 40 40 40 40 39 39
14 15 16 18 21 24 26 28 29 30 31 33 32 31 32 33 34 35 35 36 37 38 40 41 40 40 40 40 40 40 39 38 39 40 42 42 43 42 41 41 41 40
20 20 21 22 24 26 28 29 30 31 31 32 31 31 31 32 33 35 36 36 37 38 40 41 40 39 39 39 38 38 36 35 36 39 41 43 44 43 42 41 41 40
25 26 26 25 25 25 26 25 26 27 27 28 30 31 32 33 34 35 35 36 37 37 37 39 39 37 35 34 32 29 28 28 29 32 35 38 41 41 41 41 40 40
25 26 26 25 24 23 23 23 24 25 26 27 29 31 32 33 33 34 34 35 35 35 36 37 36 33 28 25 22 21 21 23 24 26 28 31 33 34 36 38 39 40
21 22 22 22 22 22 22 23 23 24 26 27 29 31 32 32 32 33 34 34 34 34 34 33 31 25 20 19 18 18 19 20 22 24 25 27 28 29 31 33 35 37
18 18 18 19 20 21 22 23 24 26 27 28 29 31 32 32 32 32 33 33 33 32 29 26 24 21 18 18 19 19 19 21 22 25 26 28 29 31 32 33 34 35
16 16 17 18 19 21 23 24 26 28 29 30 31 31 32 32 32 32 33 33 30 28 25 23 22 21 20 19 20 21 22 23 26 28 30 31 33 34 36 36 36 36
Wind_Direction
254 249 245 241 236 234 233 226 222 220 219 228 240 240 233 228 223 219 222 226 232 239 244 249 254 258 265 272 279 284 288 290 293 295 294 293 293 291 291 292 293 294
261 251 246 244 240 238 235 227 223 224 224 232 238 236 233 227 221 221 225 230 236 241 246 250 256 262 269 276 283 287 289 291 294 295 294 292 290 287 285 285 285 284
263 254 247 248 247 245 241 232 225 226 231 236 236 232 229 225 222 225 228 233 238 242 247 252 258 266 274 281 286 289 292 294 296 297 294 292 290 287 285 284 282 279
265 257 249 248 250 252 253 243 230 228 231 233 231 230 229 225 225 228 231 236 240 244 248 255 263 271 278 284 289 292 295 296 298 298 295 294 292 288 285 282 280 278
262 259 253 248 248 250 251 245 234 230 231 230 229 228 227 226 228 230 234 239 243 247 252 258 266 274 280 286 291 294 296 298 299 298 296 294 292 287 284 280 278 277
251 251 250 247 246 246 246 244 237 231 229 228 227 226 226 228 230 232 237 242 246 250 255 261 268 274 279 284 289 294 297 298 298 297 294 292 289 284 280 277 275 274
244 245 246 246 247 247 246 243 236 230 227 227 227 226 227 229 232 236 240 244 248 253 259 265 269 272 275 281 287 292 294 295 296 294 292 289 285 281 277 276 276 274
244 245 247 250 250 247 243 239 232 228 227 228 227 227 230 233 235 239 242 245 251 257 262 265 267 269 273 278 283 286 289 292 294 292 289 286 282 280 279 279 279 278
246 246 250 253 250 243 237 231 227 227 228 229 230 231 234 236 239 242 245 250 254 258 261 263 265 269 272 276 280 283 288 291 291 288 285 283 281 279 279 278 278 277
246 250 254 253 249 241 234 229 226 227 229 232 234 235 236 240 246 250 252 254 256 258 260 262 265 268 272 275 279 283 287 288 287 285 283 281 279 278 277 275 274 273
251 260 261 255 249 241 233 229 229 232 235 238 239 239 243 249 252 252 254 255 255 257 259 261 264 268 272 275 279 282 285 285 284 283 280 278 277 277 276 273 271 271
260 266 265 257 250 242 236 234 237 240 243 243 242 245 251 254 251 248 250 251 252 255 258 260 264 269 272 276 279 281 281 281 280 278 274 273 275 276 276 273 270 269
262 265 263 256 249 243 239 239 241 244 244 241 243 251 255 252 247 244 244 246 250 253 257 262 267 270 274 277 278 278 276 274 272 270 269 270 272 272 272 271 269 268
265 264 257 249 244 242 240 241 242 243 244 244 248 252 251 243 238 237 239 246 252 256 261 268 271 273 276 277 277 275 273 270 268 269 269 269 269 269 267 265 266 266
262 258 252 247 244 244 244 244 245 248 251 253 252 247 241 236 235 238 245 253 259 263 268 272 274 275 276 275 274 272 270 269 269 270 270 270 269 268 264 261 261 263
261 255 252 250 249 250 252 253 257 261 260 253 245 240 240 241 243 246 252 260 267 271 273 273 273 274 273 272 271 270 269 269 269 270 270 270 269 266 264 261 260 262
264 259 256 256 256 257 260 261 262 261 257 249 244 246 250 252 252 254 259 267 273 275 274 272 271 271 271 270 270 269 270 269 269 269 269 269 267 265 264 263 262 262
293 292 281 276 274 272 271 269 267 264 261 260 259 260 262 262 264 266 268 271 273 272 271 271 271 271 271 271 271 270 268 267 267 267 267 266 265 264 263 263 262 260
311 309 302 298 296 293 288 284 282 279 274 271 269 269 269 269 270 272 272 271 271 271 272 273 274 275 275 275 274 272 269 268 267 267 265 264 263 262 262 262 261 260
291 288 285 286 286 284 280 278 277 276 274 273 274 275 273 273 274 275 275 274 274 275 277 278 279 280 280 278 276 275 273 270 268 266 264 263 262 261 262 262 262 262
278 278 280 282 281 278 276 275 275 275 276 278 281 282 282 282 282 282 282 282 282 283 283 283 283 282 282 281 280 279 277 273 269 265 261 259 259 258 258 259 260 261
283 287 290 290 287 284 283 283 284 285 287 289 290 289 289 289 289 289 289 289 288 287 286 285 285 285 285 284 281 278 275 271 268 265 262 260 258 257 256 256 256 257
287 288 289 289 289 290 291 292 293 294 295 296 296 295 294 294 293 293 293 292 291 291 290 289 290 289 287 280 274 269 266 264 264 265 265 265 264 262 260 258 257 257
288 285 286 289 292 295 297 298 300 301 302 303 302 300 299 299 299 298 297 296 296 295 294 293 291 288 280 270 265 263 263 264 266 267 268 268 268 268 267 265 264 262
289 290 292 295 298 301 304 307 309 311 312 311 308 305 303 302 301 299 298 299 299 298 294 290 286 283 278 273 270 268 268 270 273 275 274 273 272 272 271 271 269 267
293 295 296 300 305 310 313 314 316 316 315 313 309 305 302 299 298 297 297 297 298 296 290 285 284 284 282 279 276 274 275 275 275 275 275 274 274 274 275 275 273 270